Port Hope, MI

8:03 PM EST on December 16, 2017 (GMT -0500)
Port Hope

Weather History for KP58 - May, 2014

Change the Weather History Date:

Thursday, May 15, 2014

  Actual Average Record
Temperature  
Mean Temperature 45 °F -  
Max Temperature 48 °F 58 °F 82 °F (2012)
Min Temperature 42 °F 43 °F 36 °F (2016)
Degree Days  
Heating Degree Days 20    
Moisture  
Dew Point 41 °F    
Average Humidity 89    
Maximum Humidity 96    
Minimum Humidity 79    
Precipitation  
Precipitation 0.54 in - - ()
Sea Level Pressure  
Sea Level Pressure 29.84 in    
Wind  
Wind Speed 12 mph (NNW)    
Max Wind Speed 20 mph    
Max Gust Speed 22 mph    
Averages and records for this station are not official NWS values.
T = Trace of Precipitation, MM = Missing Value Source: NWS Daily Summary

Daily Weather History Graph

Daily Weather History Graph

Search for Another Location

Airport or City:

Trip Planner

Search our weather history database for the weather conditions in past years. The results will help you decide how hot, cold, wet, or windy it might be!

Date:

Astronomy

May. 15, 2014 Rise Set
Actual Time 6:05 AM EDT 8:50 PM EDT
Civil Twilight 5:31 AM EDT 9:24 PM EDT
Nautical Twilight 4:49 AM EDT 10:06 PM EDT
Astronomical Twilight 4:00 AM EDT 10:55 PM EDT
Moon 9:57 PM EDT (5/15) 6:51 AM EDT (5/15)
Length of Visible Light 15h 52m
Length of Day
14h 45m
Full, 99% of the Moon is Illuminated
May 15
Full
May 21
Last Quarter
May 28
New
Jun 5
First Quarter
Jun 13
Full

Hourly Weather History & Observations

Time (EDT) Temp. Windchill Dew Point Humidity Pressure Visibility Wind Dir Wind Speed Gust Speed Precip Events Conditions
12:51 AM 45.0 °F 38.5 °F 39.0 °F 80% 30.02 in - NNE 13.8 mph - 0.02 in   Unknown
1:51 AM 45.0 °F 37.9 °F 39.0 °F 80% 29.99 in - NNE 16.1 mph - 0.02 in   Unknown
2:51 AM 44.1 °F 36.2 °F 39.0 °F 82% 29.96 in - NNE 18.4 mph - 0.05 in   Unknown
3:51 AM 43.0 °F 34.8 °F 41.0 °F 93% 29.92 in - NNE 18.4 mph - 0.04 in   Unknown
4:51 AM 44.1 °F 35.9 °F 41.0 °F 89% 29.89 in - NNE 19.6 mph - N/A   Unknown
5:51 AM 42.1 °F 35.2 °F 39.9 °F 92% 29.85 in - North 12.7 mph - 0.04 in   Unknown
6:51 AM 42.1 °F 33.9 °F 39.9 °F 92% 29.81 in - NNE 17.3 mph - 0.03 in   Unknown
7:51 AM 42.1 °F 34.9 °F 41.0 °F 96% 29.79 in - North 13.8 mph - 0.01 in   Unknown
8:51 AM 42.1 °F 35.2 °F 39.9 °F 92% 29.77 in - NNE 12.7 mph 21.9 mph 0.06 in   Unknown
9:51 AM 42.1 °F 37.7 °F 41.0 °F 96% 29.75 in - North 6.9 mph - 0.03 in   Unknown
10:51 AM 42.1 °F 38.4 °F 41.0 °F 96% 29.75 in - NNW 5.8 mph - 0.06 in   Unknown
11:51 AM 42.1 °F 38.4 °F 41.0 °F 96% 29.73 in - North 5.8 mph - 0.16 in   Unknown
12:51 PM 43.0 °F 40.3 °F 41.0 °F 93% 29.71 in - NNW 4.6 mph - 0.01 in   Unknown
1:51 PM 42.1 °F 37.7 °F 41.0 °F 96% 29.71 in - NW 6.9 mph - 0.01 in   Unknown
2:51 PM 43.0 °F 38.8 °F 39.9 °F 89% 29.74 in - NW 6.9 mph - N/A   Unknown
3:51 PM 44.1 °F 40.1 °F 42.1 °F 93% 29.78 in - WNW 6.9 mph - N/A   Unknown
4:51 PM 46.9 °F - 45.0 °F 93% 29.78 in - Variable 4.6 mph - N/A   Unknown
5:51 PM 48.9 °F - 45.0 °F 86% 29.80 in - West 8.1 mph - N/A   Unknown
6:51 PM 48.9 °F - 45.0 °F 86% 29.82 in - WSW 10.4 mph 19.6 mph N/A   Unknown
7:51 PM 48.0 °F - 43.0 °F 83% 29.86 in - WSW 9.2 mph - N/A   Unknown
8:51 PM 46.9 °F - 43.0 °F 86% 29.88 in - WSW 8.1 mph - N/A   Unknown
9:51 PM 46.9 °F - 42.1 °F 83% 29.91 in - West 3.5 mph - N/A   Unknown
10:51 PM 46.0 °F 42.5 °F 41.0 °F 83% 29.91 in - West 6.9 mph - N/A   Unknown
11:51 PM 44.1 °F 38.6 °F 37.9 °F 79% 29.93 in - West 10.4 mph 17.3 mph N/A   Unknown